Probability
0 0 0 0 0 0 0 0 0 0 0 0 0 0 0 0 0 0 0 0 0 0 0 0 0 0 0 0 0 0 0 0 0 0 0 0 0 0 0 0 0 0 0
0 0 0 0 0 0 0 0 0 0 0 0 0 0 0 0 0 0 0 0 0 0 0 0 0 0 0 0 0 0 0 0 0 0 0 0 0 0 0 0 0 0 0
0 0 0 0 0 0 0 0 0 0 0 0 0 0 0 0 0 0 0 0 0 0 0 0 0 0 0 0 0 0 0 0 0 0 0 0 0 0 0 0 0 0 0
0 0 0 0 0 0 0 0 0 0 0 0 0 0 0 0 0 0 0 0 0 0 0 0 0 0 0 0 0 0 0 0 0 0 0 0 0 0 0 0 0 0 0
0 0 0 0 0 0 0 0 0 0 0 0 0 0 0 0 0 0 0 0 0 0 0 0 0 0 0 0 0 0 0 0 0 0 0 0 0 0 0 0 0 0 0
0 0 0 0 0 0 0 0 0 0 0 0 0 0 0 0 0 0 0 0 0 0 0 0 0 0 0 0 0 0 0 0 0 0 0 0 0 0 0 0 0 0 0
0 0 0 0 0 0 0 0 0 0 0 0 0 0 0 0 0 0 0 0 0 0 0 0 0 0 0 0 0 0 0 0 0 0 0 0 0 0 0 0 0 0 0
0 0 0 0 0 0 0 0 0 0 0 0 0 0 0 0 0 0 0 0 0 0 0 0 0 0 0 0 0 0 0 0 0 0 0 0 0 0 0 0 0 0 0
0 0 0 0 0 0 0 0 0 0 0 0 0 0 0 0 0 0 0 0 0 0 0 0 0 0 0 0 0 0 0 0 0 0 0 0 0 0 0 0 0 0 0
0 0 0 0 0 0 0 0 0 0 0 0 0 0 0 0 0 0 0 0 0 0 0 0 0 0 0 0 0 0 0 0 0 0 0 0 0 0 0 0 0 0 0
0 0 0 0 0 0 0 0 0 0 0 0 0 0 0 0 0 0 0 0 0 0 0 0 0 0 0 0 0 0 0 0 0 0 0 0 0 0 0 0 0 0 0
0 0 0 0 0 0 0 0 0 0 0 0 0 0 0 0 0 0 0 0 0 0 0 0 0 0 0 0 0 0 0 0 0 0 0 0 0 0 0 0 0 0 0
0 0 0 0 0 0 0 0 0 0 0 0 0 0 0 0 0 0 0 0 0 0 0 0 0 0 0 0 0 0 0 0 0 0 0 0 0 0 0 0 0 0 0
0 0 0 0 0 0 0 0 0 0 0 0 0 0 0 0 0 0 0 0 0 0 0 0 0 0 0 0 0 0 0 0 0 0 0 0 0 0 0 0 0 0 0
0 0 0 0 0 0 0 0 0 0 0 0 0 0 0 0 0 0 0 0 0 0 0 0 0 0 0 0 0 0 0 0 0 0 0 0 0 0 0 0 0 0 0
0 0 0 0 0 0 0 0 0 0 0 0 0 0 0 0 0 0 0 0 0 0 0 0 0 0 0 0 0 0 0 0 0 0 0 0 0 0 0 0 0 0 0
0 0 0 0 0 0 0 0 0 0 0 0 0 0 0 0 0 0 0 0 0 0 0 0 0 0 0 0 0 0 0 0 0 0 0 0 0 0 0 0 0 0 0
0 0 0 0 0 0 0 0 0 0 0 0 0 0 0 0 0 0 0 0 0 0 0 0 0 0 0 0 0 0 0 0 0 0 0 0 0 0 0 0 0 0 0
0 0 0 0 0 0 0 0 0 0 0 0 0 0 0 0 0 0 0 0 0 0 0 0 0 0 0 0 0 0 0 0 0 0 0 0 0 0 0 0 0 0 0
0 0 0 0 0 0 0 0 0 0 0 0 0 0 0 0 0 0 0 0 0 0 0 0 0 0 0 0 0 0 0 0 0 0 0 0 0 0 0 0 0 0 0
0 0 0 0 0 0 0 0 0 0 0 0 0 0 0 0 0 0 0 0 0 0 0 0 0 0 0 0 0 0 0 0 0 0 0 0 0 0 0 0 0 0 0
0 0 0 0 0 0 0 0 0 0 0 0 0 0 0 0 0 0 0 0 0 0 0 0 0 0 0 0 0 0 0 0 0 0 0 0 0 0 0 0 0 0 0
0 0 0 0 0 0 0 0 0 0 0 0 0 0 0 0 0 0 0 0 0 0 0 0 0 0 0 0 0 0 0 0 0 0 0 0 0 0 0 0 0 0 0
0 0 0 0 0 0 0 0 0 0 0 0 0 0 0 0 0 0 0 0 0 0 0 0 0 0 0 0 0 0 0 0 0 0 0 0 0 0 0 0 0 0 0
0 0 0 0 0 0 0 0 0 0 0 0 0 0 0 0 0 0 0 0 0 0 0 0 0 0 0 0 0 0 0 0 0 0 0 0 0 0 0 0 0 0 0
0 0 0 0 0 0 0 0 0 0 0 0 0 0 0 0 0 0 0 0 0 0 0 0 0 0 0 0 0 0 0 0 0 0 0 0 0 0 0 0 0 0 0
Wind_Speed
3 3 3 2 3 3 4 4 4 3 2 1 1 1 3 3 4 3 3 9 10 9 9 9 8 7 6 6 6 5 4 1 1 3 5 5 6 7 6 8 8 8 7
3 3 3 3 3 3 3 4 4 4 2 1 1 1 2 2 3 4 4 6 10 11 10 10 10 9 8 8 7 7 5 4 3 1 2 3 4 5 5 6 7 7 7
1 2 2 2 2 2 2 2 3 3 3 2 2 1 1 2 3 4 4 3 5 9 11 10 9 9 9 10 9 8 7 7 5 3 1 2 2 2 3 4 4 5 5
5 2 1 1 1 1 1 1 2 1 2 2 1 1 2 2 3 3 3 3 3 4 7 12 11 9 10 10 10 9 9 8 7 5 3 3 2 2 2 3 3 3 3
12 8 6 5 4 2 2 1 1 1 1 1 2 2 2 3 4 4 4 4 4 4 4 8 12 12 11 11 12 11 10 10 9 7 6 5 5 5 4 4 4 4 4
14 11 8 9 7 5 4 3 3 3 2 2 2 3 3 4 4 5 5 4 4 4 4 4 5 7 12 13 13 13 13 11 10 9 8 7 7 8 8 7 7 6 6
14 13 9 10 9 7 6 5 3 3 3 3 2 3 3 4 5 4 3 3 4 4 4 4 4 4 5 12 14 15 15 14 13 12 11 10 10 10 9 9 9 9 8
14 12 12 10 10 8 9 8 5 3 3 3 3 3 5 5 4 2 2 3 3 2 4 4 4 5 4 4 9 16 17 17 16 14 13 12 12 12 11 11 11 10 10
14 13 13 11 10 9 9 9 7 5 3 2 1 2 3 4 5 3 2 2 3 3 4 5 6 6 6 4 5 11 16 18 18 17 16 15 14 14 13 13 12 12 12
13 13 12 12 10 9 9 9 8 5 4 3 2 0 2 2 3 6 4 3 3 4 5 5 5 6 6 5 7 13 16 17 18 18 17 16 16 16 15 14 14 14 13
11 11 11 10 10 9 10 10 9 8 6 4 3 3 2 2 3 4 7 5 4 3 4 5 5 6 6 6 6 10 17 18 18 17 17 17 18 18 17 16 16 15 15
7 10 9 9 8 8 8 8 8 8 7 6 5 3 3 3 3 4 6 8 7 5 5 4 5 6 6 6 9 16 18 20 20 19 18 17 18 20 19 18 17 17 16
5 8 8 7 6 6 6 7 7 7 7 7 5 4 4 4 4 5 7 8 9 6 5 4 5 5 6 5 7 16 17 20 22 21 19 18 19 20 20 20 19 18 18
3 5 5 6 6 6 7 6 5 5 5 6 7 6 5 5 4 4 4 6 10 7 4 6 4 5 6 5 10 16 10 19 22 23 22 20 20 20 20 21 21 20 20
3 4 4 5 5 5 5 5 4 5 5 5 6 6 5 5 5 5 5 4 5 9 10 4 3 3 4 5 11 8 7 16 21 23 23 21 21 22 22 22 22 22 22
4 4 5 5 5 5 5 5 5 5 6 6 5 7 6 5 5 5 5 5 5 7 10 5 4 5 6 6 11 8 9 18 21 22 23 23 23 23 24 24 24 24 24
4 5 5 6 6 6 6 6 6 7 7 8 7 8 8 7 7 6 5 6 6 6 12 10 7 7 7 8 9 8 8 9 9 19 23 25 25 24 24 25 26 25 25
4 4 4 5 6 7 6 7 9 9 9 10 10 9 10 8 9 7 7 8 8 7 10 15 11 8 9 8 9 10 8 8 8 17 23 25 26 26 25 26 26 25 24
3 4 4 5 6 7 7 8 8 9 10 11 12 12 12 10 11 8 8 10 9 10 9 12 13 8 8 7 8 8 8 8 8 13 20 24 26 27 27 27 27 25 23
4 5 6 6 7 8 9 9 10 11 12 13 13 13 13 12 13 12 11 11 10 11 11 12 12 9 9 8 8 8 8 7 8 8 15 17 20 25 29 29 26 23 22
5 6 6 7 7 7 7 11 13 13 14 15 14 14 14 17 21 18 15 13 12 11 11 12 13 12 10 7 8 6 10 7 9 7 8 9 10 11 14 22 24 24 25
5 6 6 7 8 8 15 20 17 14 15 16 16 15 15 16 19 23 26 25 23 17 13 13 14 15 14 9 7 8 10 10 10 4 8 10 8 12 11 10 20 27 28
6 6 7 7 9 12 19 21 22 17 15 14 15 15 13 13 15 16 19 23 22 24 25 19 19 19 17 13 12 13 12 13 14 6 6 10 8 13 9 12 25 28 28
5 6 8 9 10 12 20 22 23 16 13 13 14 15 16 16 15 18 17 16 17 16 18 16 16 18 17 16 15 17 17 17 16 9 9 13 9 10 7 9 22 28 29
6 7 7 7 9 13 19 22 22 12 11 14 14 15 16 16 22 26 20 16 17 16 20 25 27 26 29 30 24 15 14 15 17 14 10 13 11 7 7 10 15 27 29
6 7 8 8 10 11 18 22 22 9 10 11 12 14 18 22 25 27 19 16 17 16 15 16 19 22 21 21 26 19 14 15 16 15 10 11 10 6 6 7 10 11 17
Wind_Direction
178 170 179 180 176 161 161 157 157 160 156 60 24 5 336 330 323 319 319 321 318 307 294 285 276 265 262 260 258 252 243 221 64 26 16 15 18 25 31 34 34 36 44
182 174 178 182 191 187 177 167 165 165 170 176 285 316 315 318 319 317 314 318 319 317 308 292 282 273 265 260 254 247 229 209 167 96 9 5 7 13 20 24 23 25 31
176 164 172 192 203 175 154 138 147 147 162 179 245 281 298 305 302 303 307 308 312 314 315 310 304 294 281 271 262 248 232 211 192 180 246 298 316 336 1 6 0 359 5
28 56 58 18 60 98 117 135 134 179 200 206 237 276 299 299 290 285 285 287 294 301 310 309 313 312 303 288 274 256 239 217 201 197 208 244 259 272 296 311 325 320 321
31 36 32 24 32 43 44 58 56 14 287 275 274 275 272 269 272 276 270 265 266 277 290 303 310 315 309 297 282 268 246 222 209 204 211 234 245 250 257 263 268 274 282
34 37 38 29 27 29 24 22 28 29 10 349 312 283 268 259 257 254 256 259 260 267 278 290 305 310 306 301 290 275 258 237 221 212 217 232 245 250 252 251 253 256 259
36 38 35 32 29 34 28 23 22 19 15 6 333 314 298 262 258 267 275 284 290 298 301 297 301 301 306 302 298 286 270 252 233 221 221 233 243 249 248 246 247 248 249
37 38 36 34 29 31 30 25 23 16 15 19 359 335 326 329 341 319 287 260 275 292 288 284 283 281 285 292 292 291 282 270 255 237 226 230 239 245 245 244 246 246 246
41 40 38 37 32 32 28 21 17 19 1 1 22 348 334 319 322 310 324 304 281 271 266 264 262 260 262 263 279 287 285 283 274 262 244 230 232 240 244 244 245 244 243
40 38 37 37 36 33 28 20 18 10 10 358 349 5 236 266 296 309 309 303 288 274 276 277 272 266 258 255 257 266 275 278 278 274 265 244 232 234 240 244 244 243 241
38 35 36 35 33 30 26 22 19 19 16 5 347 326 308 261 228 266 294 304 306 278 270 263 262 264 261 253 252 257 264 268 271 271 265 252 236 232 235 240 243 242 240
32 31 32 31 30 26 22 17 15 18 15 5 353 342 328 311 305 282 288 300 294 278 267 252 250 254 252 247 251 256 259 262 263 264 261 249 234 229 231 236 240 241 238
25 19 23 23 23 17 16 13 13 9 7 360 348 337 324 302 295 289 288 294 294 289 262 246 236 243 251 243 250 254 253 256 257 257 256 246 234 227 227 233 238 240 238
26 11 15 17 14 10 10 6 5 356 351 342 336 327 314 305 302 296 289 296 300 295 265 257 249 236 247 248 256 262 253 252 253 253 252 245 237 230 227 231 236 238 237
21 12 9 7 1 359 356 352 346 335 328 320 313 307 301 297 294 290 286 277 279 294 297 271 260 254 253 255 265 264 246 252 254 254 252 247 239 233 231 233 236 237 236
11 3 2 357 350 346 342 337 324 313 309 304 297 295 292 290 290 285 282 278 263 265 278 283 279 277 269 262 266 259 248 256 254 253 252 248 242 234 232 233 235 236 235
358 353 346 342 338 335 333 326 316 309 305 301 295 291 287 287 285 283 279 276 272 264 273 281 280 284 275 269 273 266 257 253 252 249 248 248 245 239 232 231 233 234 234
342 335 331 330 327 328 322 316 311 311 303 301 300 294 289 287 279 278 277 274 272 265 270 280 283 284 277 270 268 267 263 256 248 251 249 247 245 243 237 232 231 231 231
336 337 338 331 327 324 318 310 302 301 298 297 297 296 295 292 289 282 274 275 275 274 268 275 278 276 278 273 272 266 257 257 253 255 254 250 245 243 240 235 231 228 226
340 342 336 329 327 323 317 312 313 310 304 299 298 297 296 293 292 291 285 279 277 276 273 274 278 275 271 270 267 271 270 251 253 248 252 249 244 241 239 236 232 226 222
344 335 331 328 327 319 312 317 314 307 304 303 301 299 298 298 297 294 290 288 285 281 280 278 279 279 272 264 264 261 268 268 256 237 246 247 242 238 233 235 230 223 221
338 331 327 322 318 315 314 315 313 308 304 303 303 303 301 295 294 295 294 292 289 286 285 282 281 278 278 273 270 268 271 272 271 227 224 242 227 238 232 225 229 226 222
328 323 317 315 309 305 310 312 312 308 302 300 299 298 297 297 297 293 291 290 289 287 284 282 280 279 284 287 288 281 272 267 265 244 223 248 225 240 233 232 232 229 225
317 312 308 303 298 299 308 311 311 306 298 295 293 293 293 292 291 290 289 285 284 283 281 280 277 280 282 283 279 280 281 280 275 257 226 254 237 237 226 224 235 233 230
302 298 292 292 294 298 306 308 307 301 295 295 293 289 287 286 286 288 287 283 283 281 283 280 278 279 281 284 284 280 271 266 265 258 229 244 248 235 227 225 227 230 232
290 294 294 293 290 288 296 304 307 298 293 290 287 283 282 283 284 287 284 280 278 276 273 270 272 275 277 278 279 274 274 270 268 263 233 232 240 213 240 225 214 216 226